Las Vegas, NV

2:40 PM PDT on May 24, 2017 (GMT -0700)
McCarran International

Weather History for KLAS - January, 2013

Change the Weather History Date:

Wednesday, January 9, 2013

  Actual Average Record
Temperature  
Mean Temperature 51 °F 48 °F  
Max Temperature 60 °F 57 °F 72 °F (1945)
Min Temperature 41 °F 39 °F 11 °F (1937)
Degree Days  
Heating Degree Days 14 17  
Month to date heating degree days 185 155  
Since 1 July heating degree days 858 1002  
Cooling Degree Days 0 0  
Month to date cooling degree days 0 0  
Year to date cooling degree days 0 0  
Moisture  
Dew Point 28 °F    
Average Humidity 42    
Maximum Humidity 57    
Minimum Humidity 26    
Precipitation  
Precipitation 0.00 in 0.01 in 0.30 in (1980)
Month to date precipitation 0.00 0.17  
Year to date precipitation 0.00 0.17  
Snow  
Snow 0.00 in 0.00 in 0.30 in (1973)
Month to date snowfall 0.0 0.0  
Since 1 July snowfall T 0.2  
Snow Depth 0.00 in    
Sea Level Pressure  
Sea Level Pressure 30.07 in    
Wind  
Wind Speed 5 mph (SSW)    
Max Wind Speed 12 mph    
Max Gust Speed 13 mph    
Visibility 10 miles    
Events      
T = Trace of Precipitation, MM = Missing Value Source: NWS Daily Summary

Daily Weather History Graph

Daily Weather History Graph

Search for Another Location

Airport or City:

Trip Planner

Search our weather history database for the weather conditions in past years. The results will help you decide how hot, cold, wet, or windy it might be!

Date:

Astronomy

Jan. 09, 2013 Rise Set
Actual Time 6:51 AM PST 4:44 PM PST
Civil Twilight 6:23 AM PST 5:12 PM PST
Nautical Twilight 5:51 AM PST 5:44 PM PST
Astronomical Twilight 5:20 AM PST 6:15 PM PST
Moon 4:35 AM PST (1/9) 2:50 PM PST (1/9)
Length of Visible Light 10h 48m
Length of Day
9h 52m
Waning Crescent, 6% of the Moon is Illuminated
Jan 9
Waning Crescent
Jan 11
New
Jan 18
First Quarter
Jan 26
Full
Feb 3
Last Quarter

Hourly Weather History & Observations

Time (PST) Temp. Windchill Dew Point Humidity Pressure Visibility Wind Dir Wind Speed Gust Speed Precip Events Conditions
12:56 AM 46.0 °F 41.4 °F 28.9 °F 51% 30.20 in 10.0 mi SSW 9.2 mph - N/A   Scattered Clouds
1:56 AM 44.1 °F 39.5 °F 28.9 °F 55% 30.20 in 10.0 mi WSW 8.1 mph - N/A   Scattered Clouds
2:56 AM 43.0 °F 38.2 °F 28.9 °F 58% 30.19 in 10.0 mi SW 8.1 mph - N/A   Scattered Clouds
3:56 AM 42.1 °F 38.4 °F 28.9 °F 60% 30.18 in 10.0 mi SSW 5.8 mph - N/A   Scattered Clouds
4:56 AM 42.1 °F 38.4 °F 28.9 °F 60% 30.18 in 10.0 mi SW 5.8 mph - N/A   Mostly Cloudy
5:56 AM 43.0 °F 37.2 °F 28.9 °F 58% 30.17 in 10.0 mi SSW 10.4 mph - N/A   Scattered Clouds
6:56 AM 42.8 °F 39.3 °F 28.4 °F 57% 30.19 in 10.0 mi SSW 5.8 mph - N/A   Scattered Clouds
7:56 AM 43.0 °F 40.3 °F 28.9 °F 58% 30.21 in 10.0 mi SSW 4.6 mph - N/A   Mostly Cloudy
8:56 AM 48.9 °F - 30.0 °F 48% 30.21 in 10.0 mi South 4.6 mph - N/A   Mostly Cloudy
9:56 AM 53.1 °F - 30.0 °F 41% 30.20 in 10.0 mi SSW 5.8 mph - N/A   Mostly Cloudy
10:56 AM 55.0 °F - 28.0 °F 35% 30.15 in 10.0 mi South 4.6 mph - N/A   Mostly Cloudy
11:56 AM 57.9 °F - 27.0 °F 31% 30.10 in 10.0 mi South 3.5 mph - N/A   Mostly Cloudy
12:56 PM 59.0 °F - 25.0 °F 27% 30.07 in 10.0 mi Calm Calm - N/A   Mostly Cloudy
1:56 PM 59.0 °F - 26.1 °F 28% 30.05 in 10.0 mi South 3.5 mph - N/A   Mostly Cloudy
2:56 PM 59.0 °F - 25.0 °F 27% 30.03 in 10.0 mi SE 3.5 mph - N/A   Mostly Cloudy
3:56 PM 57.9 °F - 26.1 °F 30% 30.01 in 10.0 mi SE 5.8 mph - N/A   Mostly Cloudy
4:56 PM 55.9 °F - 26.1 °F 32% 29.99 in 10.0 mi SE 4.6 mph - N/A   Mostly Cloudy
5:56 PM 55.0 °F - 27.0 °F 34% 29.96 in 10.0 mi South 4.6 mph - N/A   Mostly Cloudy
6:56 PM 54.0 °F - 27.0 °F 35% 29.95 in 10.0 mi South 4.6 mph - N/A   Mostly Cloudy
7:56 PM 51.1 °F - 28.0 °F 41% 29.93 in 10.0 mi SSW 4.6 mph - N/A   Mostly Cloudy
8:56 PM 48.9 °F - 28.0 °F 44% 29.91 in 10.0 mi West 5.8 mph - N/A   Mostly Cloudy
9:56 PM 50.0 °F - 28.9 °F 44% 29.88 in 10.0 mi SSW 4.6 mph - N/A   Mostly Cloudy
10:56 PM 48.2 °F - 28.4 °F 46% 29.86 in 10.0 mi SSW 5.8 mph - N/A   Overcast
11:56 PM 48.0 °F - 28.9 °F 48% 29.82 in 10.0 mi SW 3.5 mph - N/A   Overcast